Time,TemperatureF,DewpointF,PressureIn,WindDirection,WindDirectionDegrees,WindSpeedMPH,WindSpeedGustMPH,Humidity,HourlyPrecipIn,Conditions,Clouds,dailyrainin,SoftwareType,DateUTC
2013-02-13 00:01:00,46.0,45.0,30.29,ESE,110,2.0,6.0,95,0.00,,,0.04,,2013-02-13 08:01:00,
2013-02-13 00:11:00,46.0,45.0,30.29,ESE,110,2.0,6.0,95,0.00,,,0.04,,2013-02-13 08:11:00,
2013-02-13 00:21:00,47.0,45.0,30.27,SW,227,2.0,15.0,94,0.00,,,0.04,,2013-02-13 08:21:00,
2013-02-13 00:31:00,47.0,45.0,30.29,South,174,1.0,11.0,94,0.00,,,0.04,,2013-02-13 08:31:00,
2013-02-13 00:42:00,47.0,45.0,30.29,South,174,1.0,11.0,94,0.00,,,0.04,,2013-02-13 08:42:00,
2013-02-13 00:52:00,47.0,45.0,30.31,SSW,206,1.0,7.0,94,0.00,,,0.04,,2013-02-13 08:52:00,
2013-02-13 01:00:00,47.0,45.0,30.32,South,186,1.0,5.0,94,0.00,,,0.04,,2013-02-13 09:00:00,
2013-02-13 01:01:00,47.0,45.0,30.31,East,92,1.0,5.0,94,0.00,,,0.04,,2013-02-13 09:01:00,
2013-02-13 01:11:00,47.0,45.0,30.31,East,92,1.0,5.0,94,0.00,,,0.04,,2013-02-13 09:11:00,
2013-02-13 01:21:00,47.0,45.0,30.32,South,186,1.0,5.0,94,0.00,,,0.04,,2013-02-13 09:21:00,
2013-02-13 01:31:00,47.0,45.0,30.32,South,186,1.0,5.0,94,0.00,,,0.04,,2013-02-13 09:31:00,
2013-02-13 01:41:00,47.0,45.0,30.32,South,186,1.0,5.0,94,0.00,,,0.04,,2013-02-13 09:41:00,
2013-02-13 01:52:00,47.0,45.0,30.32,South,186,1.0,5.0,94,0.00,,,0.04,,2013-02-13 09:52:00,
2013-02-13 06:32:00,42.0,41.0,30.35,SW,226,0.0,3.0,95,0.00,,,0.04,,2013-02-13 14:32:00,
2013-02-13 06:42:00,42.0,41.0,30.35,SSW,213,0.0,6.0,95,0.00,,,0.04,,2013-02-13 14:42:00,
2013-02-13 06:52:00,42.0,41.0,30.35,SSW,213,0.0,6.0,95,0.00,,,0.04,,2013-02-13 14:52:00,
2013-02-13 07:01:00,42.0,40.0,30.35,South,188,0.0,4.0,94,0.00,,,0.04,,2013-02-13 15:01:00,
2013-02-13 07:11:00,42.0,40.0,30.36,NE,53,0.0,2.0,94,0.00,,,0.04,,2013-02-13 15:11:00,
2013-02-13 07:21:00,42.0,40.0,30.36,NE,53,0.0,2.0,94,0.00,,,0.04,,2013-02-13 15:21:00,
2013-02-13 07:31:00,42.0,40.0,30.37,SSW,198,1.0,2.0,94,0.00,,,0.04,,2013-02-13 15:31:00,
2013-02-13 07:41:00,42.0,40.0,30.37,SSW,198,1.0,2.0,94,0.00,,,0.04,,2013-02-13 15:41:00,
2013-02-13 07:52:00,42.0,40.0,30.37,SSW,198,0.0,2.0,94,0.00,,,0.04,,2013-02-13 15:52:00,
2013-02-13 08:01:00,42.0,40.0,30.38,SSW,194,1.0,6.0,94,0.00,,,0.04,,2013-02-13 16:01:00,
2013-02-13 08:11:00,42.0,40.0,30.38,SSW,194,0.0,1.0,93,0.00,,,0.04,,2013-02-13 16:11:00,
2013-02-13 08:21:00,42.0,40.0,30.38,SSW,194,0.0,1.0,93,0.00,,,0.04,,2013-02-13 16:21:00,
2013-02-13 08:31:00,42.0,40.0,30.38,SSW,198,0.0,2.0,93,0.00,,,0.04,,2013-02-13 16:31:00,
2013-02-13 08:41:00,42.0,40.0,30.38,SSW,198,0.0,2.0,93,0.00,,,0.04,,2013-02-13 16:41:00,
2013-02-13 08:52:00,43.0,41.0,30.39,SSW,198,0.0,2.0,93,0.00,,,0.04,,2013-02-13 16:52:00,
2013-02-13 09:01:00,43.0,41.0,30.40,SSW,207,2.0,7.0,93,0.00,,,0.04,,2013-02-13 17:01:00,
2013-02-13 09:11:00,43.0,41.0,30.40,SSW,207,2.0,7.0,93,0.00,,,0.04,,2013-02-13 17:11:00,
2013-02-13 09:21:00,43.0,41.0,30.40,SSW,211,1.0,6.0,93,0.00,,,0.04,,2013-02-13 17:21:00,
2013-02-13 09:31:00,43.0,41.0,30.40,SSW,213,0.0,3.0,92,0.00,,,0.03,,2013-02-13 17:31:00,
2013-02-13 09:41:00,43.0,41.0,30.40,SSW,213,0.0,3.0,92,0.00,,,0.03,,2013-02-13 17:41:00,
2013-02-13 09:52:00,43.0,41.0,30.40,SSW,194,0.0,5.0,92,0.00,,,0.03,,2013-02-13 17:52:00,
2013-02-13 10:01:00,43.0,41.0,30.41,South,171,0.0,5.0,91,0.00,,,0.03,,2013-02-13 18:01:00,
2013-02-13 10:11:00,43.0,41.0,30.41,South,171,0.0,5.0,91,0.00,,,0.03,,2013-02-13 18:11:00,
2013-02-13 10:22:00,43.0,41.0,30.41,South,190,2.0,6.0,91,0.00,,,0.03,,2013-02-13 18:22:00,
2013-02-13 10:31:00,44.0,41.0,30.42,SSW,194,0.0,5.0,90,0.00,,,0.03,,2013-02-13 18:31:00,
2013-02-13 10:41:00,44.0,41.0,30.42,SSW,194,0.0,5.0,90,0.00,,,0.03,,2013-02-13 18:41:00,
2013-02-13 10:52:00,44.0,41.0,30.41,South,186,1.0,6.0,90,0.00,,,0.03,,2013-02-13 18:52:00,
2013-02-13 11:01:00,44.0,41.0,30.41,South,188,2.0,7.0,90,0.00,,,0.03,,2013-02-13 19:01:00,
2013-02-13 11:11:00,44.0,41.0,30.41,SSW,207,0.0,3.0,90,0.00,,,0.03,,2013-02-13 19:11:00,
2013-02-13 11:21:00,44.0,41.0,30.41,SSW,207,0.0,3.0,90,0.00,,,0.03,,2013-02-13 19:21:00,
2013-02-13 11:31:00,44.0,41.0,30.42,South,180,1.0,4.0,90,0.00,,,0.03,,2013-02-13 19:31:00,
2013-02-13 11:41:00,44.0,41.0,30.42,South,180,1.0,4.0,90,0.00,,,0.03,,2013-02-13 19:41:00,
2013-02-13 11:52:00,44.0,41.0,30.42,SSW,200,0.0,4.0,90,0.00,,,0.03,,2013-02-13 19:52:00,
2013-02-13 12:01:00,44.0,41.0,30.42,SSW,200,1.0,6.0,89,0.00,,,0.03,,2013-02-13 20:01:00,
2013-02-13 12:11:00,44.0,41.0,30.42,SSW,209,1.0,6.0,89,0.00,,,0.03,,2013-02-13 20:11:00,
2013-02-13 12:21:00,44.0,41.0,30.42,SSW,209,1.0,6.0,89,0.00,,,0.03,,2013-02-13 20:21:00,
2013-02-13 12:31:00,44.0,41.0,30.42,SSE,154,1.0,3.0,89,0.00,,,0.02,,2013-02-13 20:31:00,
2013-02-13 12:41:00,44.0,41.0,30.41,SSW,211,2.0,7.0,89,0.00,,,0.02,,2013-02-13 20:41:00,
2013-02-13 12:52:00,44.0,41.0,30.41,SSW,211,2.0,7.0,89,0.00,,,0.02,,2013-02-13 20:52:00,
2013-02-13 13:01:00,44.0,41.0,30.42,SW,221,1.0,5.0,88,0.00,,,0.02,,2013-02-13 21:01:00,
2013-02-13 13:11:00,44.0,41.0,30.42,SW,221,1.0,5.0,88,0.00,,,0.02,,2013-02-13 21:11:00,
2013-02-13 13:21:00,45.0,42.0,30.41,South,190,2.0,4.0,88,0.00,,,0.02,,2013-02-13 21:21:00,
2013-02-13 13:31:00,45.0,42.0,30.41,SSW,192,1.0,4.0,88,0.00,,,0.02,,2013-02-13 21:31:00,
2013-02-13 13:42:00,45.0,41.0,30.41,SSW,204,1.0,7.0,87,0.00,,,0.02,,2013-02-13 21:42:00,
2013-02-13 13:52:00,45.0,41.0,30.41,SSW,204,1.0,7.0,87,0.00,,,0.02,,2013-02-13 21:52:00,
2013-02-13 14:01:00,45.0,41.0,30.41,SSW,211,2.0,4.0,87,0.00,,,0.02,,2013-02-13 22:01:00,
2013-02-13 14:11:00,45.0,41.0,30.41,SSW,211,2.0,4.0,87,0.00,,,0.02,,2013-02-13 22:11:00,
2013-02-13 14:21:00,45.0,41.0,30.41,SSW,202,0.0,5.0,87,0.00,,,0.02,,2013-02-13 22:21:00,
2013-02-13 14:31:00,46.0,42.0,30.41,WSW,249,0.0,5.0,86,0.00,,,0.02,,2013-02-13 22:31:00,
2013-02-13 14:42:00,46.0,42.0,30.41,WSW,249,0.0,5.0,86,0.00,,,0.02,,2013-02-13 22:42:00,
2013-02-13 14:52:00,46.0,42.0,30.41,SSW,205,0.0,4.0,86,0.00,,,0.02,,2013-02-13 22:52:00,
2013-02-13 15:01:00,46.0,42.0,30.41,SW,218,1.0,4.0,86,0.00,,,0.02,,2013-02-13 23:01:00,
2013-02-13 15:11:00,46.0,42.0,30.41,SW,218,1.0,4.0,86,0.00,,,0.02,,2013-02-13 23:11:00,
2013-02-13 15:21:00,46.0,42.0,30.41,SSW,211,1.0,3.0,87,0.00,,,0.02,,2013-02-13 23:21:00,
2013-02-13 15:31:00,46.0,42.0,30.41,SSW,204,1.0,4.0,87,0.00,,,0.02,,2013-02-13 23:31:00,
2013-02-13 15:41:00,46.0,42.0,30.41,SSW,204,1.0,4.0,87,0.00,,,0.02,,2013-02-13 23:41:00,
2013-02-13 15:52:00,46.0,42.0,30.41,SSW,204,0.0,1.0,87,0.00,,,0.02,,2013-02-13 23:52:00,
2013-02-13 16:01:00,46.0,42.0,30.42,SSW,209,1.0,3.0,87,0.00,,,0.02,,2013-02-14 00:01:00,
2013-02-13 16:11:00,46.0,42.0,30.42,SSW,209,1.0,3.0,87,0.00,,,0.02,,2013-02-14 00:11:00,
2013-02-13 16:21:00,46.0,42.0,30.42,SSW,209,0.0,1.0,87,0.00,,,0.02,,2013-02-14 00:21:00,
2013-02-13 16:31:00,46.0,42.0,30.41,SSW,209,0.0,1.0,87,0.00,,,0.02,,2013-02-14 00:31:00,
2013-02-13 16:41:00,46.0,42.0,30.41,SSW,209,0.0,1.0,87,0.00,,,0.02,,2013-02-14 00:41:00,
2013-02-13 16:52:00,46.0,43.0,30.41,SSW,209,0.0,1.0,88,0.00,,,0.02,,2013-02-14 00:52:00,
2013-02-13 17:01:00,46.0,43.0,30.42,SSW,209,0.0,1.0,88,0.00,,,0.02,,2013-02-14 01:01:00,
2013-02-13 17:11:00,46.0,43.0,30.42,SSW,209,0.0,1.0,88,0.00,,,0.02,,2013-02-14 01:11:00,
2013-02-13 17:21:00,46.0,43.0,30.42,SSW,209,0.0,3.0,88,0.00,,,0.02,,2013-02-14 01:21:00,
2013-02-13 17:31:00,45.0,42.0,30.42,SSW,209,0.0,0.0,88,0.00,,,0.02,,2013-02-14 01:31:00,
2013-02-13 17:41:00,45.0,42.0,30.42,SSW,209,0.0,0.0,88,0.00,,,0.02,,2013-02-14 01:41:00,
2013-02-13 17:51:00,45.0,42.0,30.42,SSW,209,0.0,2.0,89,0.00,,,0.02,,2013-02-14 01:51:00,
2013-02-13 18:01:00,45.0,42.0,30.42,SSW,209,0.0,0.0,89,0.00,,,0.02,,2013-02-14 02:01:00,
2013-02-13 18:11:00,45.0,42.0,30.42,SSW,209,0.0,0.0,89,0.00,,,0.02,,2013-02-14 02:11:00,
2013-02-13 18:21:00,45.0,42.0,30.42,SSW,209,0.0,0.0,89,0.00,,,0.02,,2013-02-14 02:21:00,
2013-02-13 18:31:00,45.0,42.0,30.42,SSW,209,0.0,0.0,90,0.00,,,0.02,,2013-02-14 02:31:00,
2013-02-13 18:41:00,45.0,42.0,30.42,SSW,209,0.0,0.0,90,0.00,,,0.02,,2013-02-14 02:41:00,
2013-02-13 18:51:00,45.0,42.0,30.42,SSW,209,0.0,0.0,90,0.00,,,0.02,,2013-02-14 02:51:00,
2013-02-13 19:02:00,45.0,43.0,30.42,SSW,209,0.0,1.0,91,0.00,,,0.02,,2013-02-14 03:02:00,
2013-02-13 19:11:00,44.0,42.0,30.43,SSW,209,0.0,0.0,92,0.00,,,0.02,,2013-02-14 03:11:00,
2013-02-13 19:21:00,44.0,42.0,30.43,SSW,209,0.0,0.0,92,0.00,,,0.02,,2013-02-14 03:21:00,
2013-02-13 19:31:00,44.0,42.0,30.43,SSW,209,0.0,1.0,92,0.00,,,0.02,,2013-02-14 03:31:00,
2013-02-13 19:42:00,44.0,42.0,30.43,SSW,209,0.0,1.0,92,0.00,,,0.02,,2013-02-14 03:42:00,
2013-02-13 19:52:00,44.0,42.0,30.43,SSW,209,0.0,1.0,93,0.00,,,0.02,,2013-02-14 03:52:00,
2013-02-13 20:01:00,44.0,42.0,30.44,SSW,209,0.0,0.0,93,0.00,,,0.02,,2013-02-14 04:01:00,
2013-02-13 20:11:00,44.0,42.0,30.44,SSW,209,0.0,0.0,93,0.00,,,0.02,,2013-02-14 04:11:00,
2013-02-13 20:21:00,44.0,42.0,30.44,SSW,209,0.0,0.0,93,0.00,,,0.02,,2013-02-14 04:21:00,
2013-02-13 20:31:00,44.0,42.0,30.45,SSW,209,0.0,0.0,94,0.00,,,0.02,,2013-02-14 04:31:00,
2013-02-13 20:41:00,44.0,42.0,30.45,SSW,209,0.0,0.0,94,0.00,,,0.02,,2013-02-14 04:41:00,
2013-02-13 20:51:00,44.0,42.0,30.45,SSW,209,0.0,0.0,94,0.00,,,0.02,,2013-02-14 04:51:00,
2013-02-13 21:01:00,44.0,43.0,30.44,SSW,209,0.0,0.0,95,0.00,,,0.02,,2013-02-14 05:01:00,
2013-02-13 21:11:00,44.0,43.0,30.44,SSW,209,0.0,0.0,95,0.00,,,0.02,,2013-02-14 05:11:00,
2013-02-13 21:21:00,44.0,43.0,30.44,SSW,209,0.0,0.0,95,0.00,,,0.02,,2013-02-14 05:21:00,
2013-02-13 21:31:00,44.0,43.0,30.45,SSW,209,0.0,0.0,95,0.00,,,0.02,,2013-02-14 05:31:00,
2013-02-13 21:41:00,44.0,43.0,30.45,SSW,209,0.0,0.0,95,0.00,,,0.02,,2013-02-14 05:41:00,
2013-02-13 21:52:00,43.0,42.0,30.45,SSW,209,0.0,0.0,96,0.00,,,0.02,,2013-02-14 05:52:00,
2013-02-13 22:01:00,43.0,42.0,30.45,SSW,209,0.0,0.0,96,0.00,,,0.02,,2013-02-14 06:01:00,
2013-02-13 22:11:00,43.0,42.0,30.45,SSW,209,0.0,1.0,96,0.00,,,0.02,,2013-02-14 06:11:00,
2013-02-13 22:21:00,43.0,42.0,30.45,SSW,209,0.0,1.0,96,0.00,,,0.02,,2013-02-14 06:21:00,
2013-02-13 22:31:00,43.0,42.0,30.46,SSW,209,0.0,2.0,97,0.00,,,0.02,,2013-02-14 06:31:00,
2013-02-13 22:41:00,43.0,42.0,30.46,SSW,209,0.0,2.0,97,0.00,,,0.02,,2013-02-14 06:41:00,
2013-02-13 22:52:00,43.0,42.0,30.46,SSW,209,0.0,1.0,97,0.00,,,0.02,,2013-02-14 06:52:00,
2013-02-13 23:01:00,43.0,42.0,30.46,ENE,59,0.0,3.0,97,0.00,,,0.02,,2013-02-14 07:01:00,
2013-02-13 23:11:00,43.0,42.0,30.46,ENE,59,0.0,3.0,97,0.00,,,0.02,,2013-02-14 07:11:00,
2013-02-13 23:21:00,43.0,42.0,30.47,SW,231,0.0,5.0,98,0.00,,,0.02,,2013-02-14 07:21:00,
2013-02-13 23:31:00,43.0,42.0,30.47,SW,219,0.0,2.0,98,0.00,,,0.02,,2013-02-14 07:31:00,
2013-02-13 23:41:00,43.0,42.0,30.47,SW,219,0.0,2.0,98,0.00,,,0.02,,2013-02-14 07:41:00,
2013-02-13 23:52:00,43.0,42.0,30.47,SW,219,0.0,2.0,98,0.00,,,0.02,,2013-02-14 07:52:00,